FW3877 Weather Reports


time (UTC)temp
F
wind
direction
speed
knots
gust
knots
rain 1hr
in
rain 24hr
in
rain mn
in
humidity
%
barometer
mb
20260506234704 37 126 0.0 0.0 0.00 0.00 0.00 82 1011.7
20260506234204 37 130 0.0 0.0 0.00 0.00 0.00 82 1011.7
20260506233204 37 131 0.0 0.0 0.00 0.00 0.00 82 1011.7
20260506232203 37 130 0.0 0.0 0.00 0.00 0.00 82 1011.8
20260506231704 37 130 0.0 0.0 0.00 0.00 0.00 81 1011.8
20260506231203 37 130 0.0 0.0 0.00 0.00 0.00 81 1012.0
20260506230704 37 130 0.0 0.9 0.00 0.00 0.00 81 1012.0
20260506230204 37 130 0.0 0.9 0.00 0.00 0.00 80 1012.0
20260506225705 38 130 0.0 0.9 0.00 0.00 0.00 80 1012.1
20260506225204 38 130 0.0 0.0 0.00 0.00 0.00 80 1012.2
20260506224204 38 133 1.7 2.6 0.00 0.00 0.00 81 1012.3
20260506223703 38 134 1.7 2.6 0.00 0.00 0.00 81 1012.2
20260506223205 38 140 1.7 2.6 0.00 0.00 0.00 80 1012.3
20260506222704 38 116 0.9 2.6 0.00 0.00 0.00 79 1012.3
20260506222205 38 88 0.9 1.7 0.00 0.00 0.00 79 1012.3
20260506221704 39 130 0.9 1.7 0.00 0.00 0.00 80 1012.2
20260506221203 39 130 0.9 2.6 0.00 0.00 0.00 80 1012.3
20260506220704 39 127 1.7 2.6 0.00 0.00 0.00 79 1012.2
20260506220203 39 138 1.7 2.6 0.00 0.00 0.00 79 1012.2
20260506215704 40 111 1.7 2.6 0.00 0.00 0.00 79 1012.2
20260506215203 40 103 0.9 2.6 0.00 0.00 0.00 79 1012.3
20260506214704 40 103 0.9 1.7 0.00 0.00 0.00 79 1012.3
20260506213703 41 97 1.7 2.6 0.00 0.00 0.00 78 1012.3
20260506213204 41 93 0.9 1.7 0.00 0.00 0.00 79 1012.3
20260506212703 41 90 0.0 0.9 0.00 0.00 0.00 78 1012.4
20260506212204 41 80 0.0 0.9 0.00 0.00 0.00 78 1012.5
20260506211704 41 80 0.9 0.9 0.00 0.00 0.00 78 1012.5
20260506211204 42 78 0.0 1.7 0.00 0.00 0.00 78 1012.4
20260506210704 42 76 0.9 1.7 0.00 0.00 0.00 77 1012.4
20260506210204 42 52 0.0 0.0 0.00 0.00 0.00 77 1012.3
20260506204703 43 52 0.0 0.0 0.00 0.00 0.00 76 1012.2
20260506204203 43 52 0.0 0.0 0.00 0.00 0.00 76 1012.2
20260506203705 44 52 0.0 0.0 0.00 0.00 0.00 76 1012.3
20260506202704 44 52 0.0 0.0 0.00 0.00 0.00 76 1012.2
20260506201704 45 52 0.0 0.0 0.00 0.00 0.00 75 1011.9
20260506201204 45 52 0.0 0.0 0.00 0.00 0.00 75 1011.9
20260506200703 45 52 0.0 0.0 0.00 0.00 0.00 75 1012.0
20260506195204 46 52 0.0 0.0 0.00 0.00 0.00 74 1012.0
20260506194704 46 52 0.0 0.0 0.00 0.00 0.00 74 1012.0
20260506194204 46 52 0.0 0.0 0.00 0.00 0.00 74 1012.2
20260506193704 46 52 0.0 0.0 0.00 0.00 0.00 74 1012.1
20260506193204 46 52 0.0 0.0 0.00 0.00 0.00 74 1012.2
20260506192704 47 52 0.0 0.9 0.00 0.00 0.00 74 1012.3
20260506192204 47 52 0.9 1.7 0.00 0.00 0.00 74 1012.2
20260506191205 47 42 0.9 1.7 0.00 0.00 0.00 74 1012.4
20260506190704 47 27 1.7 2.6 0.00 0.00 0.00 74 1012.4
20260506190204 47 25 1.7 2.6 0.00 0.00 0.00 73 1012.4
20260506185704 47 27 1.7 2.6 0.00 0.00 0.00 73 1012.5
20260506185204 47 14 1.7 4.3 0.00 0.00 0.00 73 1012.4
20260506184704 47 4 1.7 4.3 0.00 0.00 0.00 73 1012.6
20260506184204 47 21 1.7 4.3 0.00 0.00 0.00 72 1012.5
20260506183704 48 13 2.6 4.3 0.00 0.00 0.00 71 1012.5
20260506182704 48 1 2.6 5.2 0.00 0.00 0.00 70 1012.5
20260506182203 49 347 1.7 4.3 0.00 0.00 0.00 70 1012.4
20260506181204 50 335 2.6 5.2 0.00 0.00 0.00 69 1012.4
20260506180704 51 3 2.6 5.2 0.00 0.00 0.00 68 1012.4
20260506180203 51 343 2.6 5.2 0.00 0.00 0.00 69 1012.4
20260506175704 51 6 2.6 7.0 0.00 0.00 0.00 68 1012.4
20260506175204 51 17 3.5 7.0 0.00 0.00 0.00 67 1012.4
20260506174704 51 18 2.6 5.2 0.00 0.00 0.00 67 1012.4
20260506174204 51 0 2.6 2.6 0.00 0.00 0.00 68 1012.3
20260506173703 51 347 1.7 7.0 0.00 0.00 0.00 68 1012.3
20260506173203 51 359 1.7 4.3 0.00 0.00 0.00 66 1012.2
20260506172704 51 349 3.5 7.0 0.00 0.00 0.00 65 1012.3
20260506172203 52 344 2.6 4.3 0.00 0.00 0.00 65 1012.3
20260506171704 51 21 2.6 5.2 0.00 0.00 0.00 65 1012.3
20260506171203 52 349 2.6 4.3 0.00 0.00 0.00 66 1012.3
20260506170703 52 47 2.6 7.8 0.00 0.00 0.00 66 1012.3
20260506165703 52 41 3.5 7.0 0.00 0.00 0.00 65 1012.2
20260506165204 52 24 4.3 7.8 0.00 0.00 0.00 64 1012.2
20260506164704 52 23 4.3 7.8 0.00 0.00 0.00 65 1012.3
20260506163704 52 338 3.5 7.8 0.00 0.00 0.00 66 1012.4
20260506163203 52 8 4.3 7.0 0.00 0.00 0.00 64 1012.4
20260506162704 53 344 2.6 7.0 0.00 0.00 0.00 66 1012.4
20260506161704 53 339 4.3 7.0 0.00 0.00 0.00 65 1012.4
20260506161203 53 336 3.5 10.4 0.00 0.00 0.00 66 1012.4
20260506160704 53 2 3.5 7.8 0.00 0.00 0.00 64 1012.5
20260506160204 53 342 3.5 7.0 0.00 0.00 0.00 65 1012.5
20260506155704 53 0 4.3 8.7 0.00 0.00 0.00 65 1012.5
20260506155204 53 355 4.3 7.8 0.00 0.00 0.00 64 1012.5
20260506154705 53 339 2.6 7.0 0.00 0.00 0.00 64 1012.4
20260506154203 53 0 4.3 7.0 0.00 0.00 0.00 64 1012.4
20260506153703 53 14 6.1 8.7 0.00 0.00 0.00 62 1012.5
20260506153204 53 28 5.2 7.8 0.00 0.00 0.00 63 1012.5
20260506152703 53 9 4.3 8.7 0.00 0.00 0.00 64 1012.5
20260506152203 53 348 4.3 10.4 0.00 0.00 0.00 62 1012.5
20260506151704 54 9 4.3 7.8 0.00 0.00 0.00 63 1012.6
20260506151203 53 32 4.3 6.1 0.00 0.00 0.00 65 1012.6
20260506150703 53 16 4.3 7.8 0.00 0.00 0.00 64 1012.7
20260506145704 54 15 6.1 10.4 0.00 0.00 0.00 64 1012.8
20260506145203 54 1 6.1 10.4 0.00 0.00 0.00 63 1012.8
20260506144705 54 52 4.3 10.4 0.00 0.00 0.00 61 1012.9
20260506144204 54 4 4.3 12.2 0.00 0.00 0.00 63 1012.9
20260506143704 54 325 3.5 7.0 0.00 0.00 0.00 61 1012.9
20260506143204 56 358 2.6 7.0 0.00 0.00 0.00 58 1012.9
20260506142704 56 230 5.2 8.7 0.00 0.00 0.00 58 1012.9
20260506142205 55 218 5.2 11.3 0.00 0.00 0.00 61 1013.0
20260506141205 54 265 1.7 2.6 0.00 0.00 0.00 60 1013.1
20260506140705 54 249 2.6 7.0 0.00 0.00 0.00 60 1013.2
20260506135704 55 203 1.7 2.6 0.00 0.00 0.00 59 1013.3
20260506135204 55 232 2.6 6.1 0.00 0.00 0.00 61 1013.4
20260506134704 55 186 4.3 7.8 0.00 0.00 0.00 60 1013.4
20260506133703 54 307 1.7 2.6 0.00 0.00 0.00 64 1013.6
20260506133204 54 0 2.6 7.0 0.00 0.00 0.00 64 1013.5
20260506132203 53 310 1.7 2.6 0.00 0.00 0.00 65 1013.7
20260506131704 53 30 1.7 2.6 0.00 0.00 0.00 65 1013.7
20260506130703 53 163 0.9 4.3 0.00 0.00 0.00 66 1013.8
20260506130203 52 126 1.7 6.1 0.00 0.00 0.00 65 1013.9
20260506125704 53 33 2.6 7.0 0.00 0.00 0.00 65 1013.9
20260506124704 52 37 2.6 6.1 0.00 0.00 0.00 68 1013.8
20260506124203 52 31 3.5 7.0 0.00 0.00 0.00 66 1013.9
20260506123204 52 28 1.7 5.2 0.00 0.00 0.00 67 1014.0
20260506122704 52 348 1.7 7.0 0.00 0.00 0.00 65 1014.1
20260506122203 52 286 2.6 7.8 0.00 0.00 0.00 64 1014.2
20260506121704 53 27 4.3 7.0 0.00 0.00 0.00 66 1014.2
20260506121204 53 314 2.6 5.2 0.00 0.00 0.00 67 1014.2
20260506120703 52 354 4.3 7.0 0.00 0.00 0.00 68 1014.2
20260506120204 51 337 2.6 7.8 0.00 0.00 0.00 66 1014.2
20260506115203 52 46 2.6 7.0 0.00 0.00 0.00 69 1014.2
20260506114704 52 254 2.6 7.0 0.00 0.00 0.00 68 1014.3
20260506113705 51 293 2.6 8.7 0.00 0.00 0.00 68 1014.5
20260506113203 51 314 1.7 6.1 0.00 0.00 0.00 67 1014.4
20260506112704 51 312 1.7 2.6 0.00 0.00 0.00 70 1014.5
20260506112203 51 310 1.7 7.0 0.00 0.00 0.00 69 1014.5
20260506111704 52 5 4.3 7.0 0.00 0.00 0.00 68 1014.6
20260506111203 52 340 1.7 4.3 0.00 0.00 0.00 68 1014.7
20260506110203 51 45 1.7 5.2 0.00 0.00 0.00 68 1014.6
20260506105704 51 338 2.6 5.2 0.00 0.00 0.00 69 1014.6
20260506105204 51 13 2.6 5.2 0.00 0.00 0.00 72 1014.5
20260506104703 50 95 2.6 6.1 0.00 0.00 0.00 70 1014.5
20260506104204 50 45 1.7 6.1 0.00 0.00 0.00 73 1014.6
20260506102704 49 340 3.5 5.2 0.00 0.00 0.00 72 1014.8
20260506102204 49 287 1.7 2.6 0.00 0.00 0.00 72 1014.7
20260506101705 50 305 2.6 5.2 0.00 0.00 0.00 72 1014.7
20260506100703 50 275 2.6 6.1 0.00 0.00 0.00 74 1014.8
20260506100204 50 283 3.5 7.8 0.00 0.00 0.00 74 1014.8
20260506095703 50 272 0.9 7.8 0.00 0.00 0.00 74 1014.9
20260506095204 50 304 1.7 5.2 0.00 0.00 0.00 74 1015.0
20260506094703 50 316 0.9 6.1 0.00 0.00 0.00 75 1014.9
20260506094204 50 334 1.7 2.6 0.00 0.00 0.00 75 1015.0
20260506093704 50 280 1.7 2.6 0.00 0.00 0.00 76 1015.0
20260506093204 50 328 1.7 2.6 0.00 0.00 0.00 76 1015.1
20260506092704 50 321 0.9 2.6 0.00 0.00 0.00 76 1015.1
20260506092204 50 312 1.7 4.3 0.00 0.00 0.00 77 1015.0
20260506091704 49 323 1.7 4.3 0.00 0.00 0.00 77 1015.1
20260506091203 48 101 0.9 2.6 0.00 0.00 0.00 77 1015.1
20260506090704 48 82 2.6 5.2 0.00 0.00 0.00 77 1015.1
20260506090203 47 48 0.9 1.7 0.00 0.00 0.00 77 1015.2
20260506085703 46 45 2.6 4.3 0.00 0.00 0.00 76 1015.2
20260506084704 47 81 2.6 6.1 0.00 0.00 0.00 78 1015.3
20260506084204 47 302 2.6 4.3 0.00 0.00 0.00 78 1015.3
20260506083704 47 321 2.6 5.2 0.00 0.00 0.00 79 1015.4
20260506083203 47 317 0.9 4.3 0.00 0.00 0.00 81 1015.4
20260506082204 46 276 1.7 2.6 0.00 0.00 0.00 82 1015.5
20260506081704 46 142 2.6 4.3 0.00 0.00 0.00 83 1015.5
20260506081204 45 203 1.7 2.6 0.00 0.00 0.00 84 1015.6
20260506080704 45 234 0.9 2.6 0.00 0.00 0.00 85 1015.7
20260506080204 45 236 0.9 2.6 0.00 0.00 0.00 84 1015.7
20260506073203 42 255 0.9 2.6 0.00 0.01 0.00 87 1015.7
20260506072704 41 234 0.9 2.6 0.00 0.02 0.00 87 1015.6
20260506072204 41 234 0.9 2.6 0.00 0.02 0.00 88 1015.7
20260506071704 40 256 1.7 2.6 0.00 0.02 0.00 88 1015.7
20260506071204 40 207 0.9 1.7 0.00 0.02 0.00 88 1015.8
20260506070204 39 165 0.0 0.0 0.00 0.02 0.00 89 1015.8
20260506062203 34 83 0.0 0.0 0.00 0.02 0.00 88 1015.7
20260506061704 33 83 0.0 0.0 0.00 0.02 0.00 88 1015.7
20260506061204 33 83 0.0 0.0 0.00 0.02 0.00 88 1015.7
20260506060703 33 83 0.0 0.0 0.00 0.02 0.00 88 1015.7
20260506060203 33 83 0.0 0.0 0.00 0.02 0.00 88 1015.7
20260506051205 31 82 0.0 0.0 0.00 0.02 0.00 87 1015.9
20260506050204 30 82 0.0 0.0 0.00 0.02 0.00 87 1016.0
20260506044704 31 82 0.0 0.0 0.00 0.02 0.00 87 1016.1
20260506043703 31 82 0.0 0.0 0.00 0.02 0.00 87 1016.1
20260506043203 31 82 0.0 0.0 0.00 0.02 0.00 87 1016.1
20260506042704 31 82 0.0 0.0 0.00 0.02 0.00 87 1016.1
20260506042204 31 82 0.0 0.0 0.00 0.02 0.00 87 1016.2
20260506041704 31 82 0.0 0.0 0.00 0.02 0.00 86 1016.2
20260506041203 31 82 0.0 0.0 0.00 0.02 0.00 86 1016.2
20260506040704 31 82 0.0 0.0 0.00 0.02 0.00 86 1016.3
20260506035703 32 82 0.0 0.0 0.00 0.02 0.00 86 1016.4
20260506034704 31 82 0.0 0.0 0.00 0.02 0.00 85 1016.4
20260506034204 31 82 0.0 0.0 0.00 0.02 0.00 85 1016.4
20260506033704 32 82 0.0 0.0 0.00 0.02 0.00 85 1016.4
20260506032704 32 82 0.0 0.0 0.00 0.02 0.00 85 1016.4
20260506032203 32 82 0.0 0.0 0.00 0.02 0.00 85 1016.4
20260506031704 32 82 0.0 0.0 0.00 0.02 0.00 85 1016.4
20260506031204 32 82 0.0 0.0 0.00 0.02 0.00 84 1016.4
20260506030704 32 82 0.0 0.0 0.00 0.02 0.00 84 1016.5
20260506030204 32 82 0.0 0.0 0.00 0.02 0.00 84 1016.6
20260506025703 32 82 0.0 0.0 0.00 0.02 0.00 84 1016.5
20260506025204 33 82 0.0 0.0 0.00 0.02 0.00 84 1016.6
20260506024203 33 82 0.0 0.0 0.00 0.02 0.00 83 1016.7
20260506023704 33 82 0.0 0.0 0.00 0.02 0.00 83 1016.7
20260506022704 34 82 0.0 0.0 0.00 0.02 0.00 83 1016.7
20260506022204 34 82 0.0 0.0 0.00 0.02 0.00 83 1016.7
20260506021703 34 82 0.0 0.0 0.00 0.02 0.00 83 1016.7
20260506021204 35 82 0.0 0.0 0.00 0.02 0.00 83 1016.7
20260506020703 35 82 0.0 0.0 0.00 0.02 0.00 83 1016.7
20260506020203 35 82 0.0 0.0 0.00 0.02 0.00 83 1016.8
20260506015204 35 82 0.0 0.0 0.00 0.02 0.00 83 1016.7
20260506014703 35 82 0.0 0.0 0.00 0.02 0.00 82 1016.7
20260506014204 36 82 0.0 0.0 0.00 0.02 0.00 82 1016.6
20260506013204 36 93 0.0 0.9 0.00 0.02 0.00 81 1016.7
20260506012703 37 103 0.9 1.7 0.00 0.02 0.00 81 1016.8
20260506012204 38 103 0.0 0.9 0.00 0.02 0.00 81 1016.9
20260506010703 39 103 0.0 0.0 0.00 0.02 0.00 81 1017.0
20260506010205 39 103 0.0 0.9 0.00 0.02 0.00 81 1017.1
20260506005704 39 103 0.9 1.7 0.00 0.02 0.00 81 1017.1
20260506005204 40 31 0.0 0.9 0.00 0.02 0.00 80 1017.1
20260506004204 41 31 0.0 0.0 0.00 0.02 0.00 80 1017.3
20260506003703 41 32 0.0 0.9 0.00 0.02 0.00 80 1017.2
20260506003204 41 31 0.9 1.7 0.00 0.02 0.00 80 1017.4
20260506002703 41 31 0.0 0.9 0.00 0.02 0.00 80 1017.4
20260506002204 41 32 0.9 1.7 0.00 0.02 0.00 80 1017.4
20260506001704 41 14 0.9 2.6 0.00 0.02 0.00 80 1017.5
20260506001204 41 17 0.9 1.7 0.00 0.02 0.00 80 1017.4
20260506000205 42 5 0.0 0.9 0.00 0.02 0.00 80 1017.5